Location: Ailingen
(47.6833°N, 9.5000°E)
Time: 13:21:08
(UTC+00:00)

Cosmos 2016 Rocket - Pass Details

Date: 18 November 2025
Orbit: 947 x 999 km, 83.0° (Epoch: 06 December)

Event Time Altitude Azimuth Distance (km) Brightness Sun altitude
Rises 16:22:48 0° 193° (SSW) 3,675 7.5 -7.1°
Reaches altitude 10° 16:25:18 10° 195° (SSW) 2,738 6.9 -7.5°
Maximum altitude 16:31:35 74° 280° (W) 1,037 4.4 -8.5°
Drops below altitude 10° 16:37:59 10° 6° (N) 2,778 6.1 -9.5°
Sets 16:40:33 0° 8° (N) 3,733 6.8 -9.9°
